Location: Berlin
(52.5170°N, 13.3889°E)
Time: 22:22:27
(UTC+02:00)

LES 1 - Pass Details

Date: 25 June 2025
Orbit: 2779 x 2808 km, 32.1° (Epoch: 12 July)

Event Time Altitude Azimuth Distance (km) Brightness Sun altitude
Rises 00:46:27 0° 253° (WSW) 6,572 12.2 -13.9°
Reaches altitude 10° 00:51:10 10° 245° (WSW) 5,552 11.7 -14.0°
Maximum altitude 01:04:31 34° 187° (S) 3,906 10.5 -14.1°
Drops below altitude 10° 01:17:55 10° 130° (SE) 5,562 11.5 -14.1°
Sets 01:22:39 0° 121° (ESE) 6,584 12.0 -14.0°
